Temperature
11 11 11 11 11 11 11 11 11 11 12 13 13 14 14 14 14 14 14 14 14 15 15 15 15 15 15 15 15 15 15 15 16 16 16 16 16 16
11 11 11 11 11 11 11 11 11 11 11 12 12 13 13 13 13 13 13 14 14 14 14 14 15 15 15 15 15 15 15 15 15 15 15 16 16 16
11 11 11 11 11 11 11 11 11 11 11 11 11 12 12 12 13 13 13 13 13 14 14 14 14 14 15 15 15 15 15 15 15 15 15 15 15 16
11 11 11 11 11 10 10 10 10 10 10 11 11 11 12 12 12 12 13 13 13 13 14 14 14 14 14 14 14 15 15 15 15 15 15 15 15 15
11 11 11 10 10 10 10 10 10 10 10 10 10 11 11 11 12 12 12 13 13 13 13 13 13 14 14 14 14 14 15 15 15 15 15 15 15 15
11 10 10 10 10 10 10 10 10 10 10 10 10 10 10 11 11 11 12 12 12 13 13 13 13 13 13 14 14 14 14 15 15 15 15 15 15 15
10 10 10 10 10 10 10 10 10 9 9 9 10 10 10 10 10 10 11 11 12 12 12 13 13 13 13 14 14 14 14 14 14 14 14 14 15 15
10 10 10 10 10 10 10 9 9 9 9 9 9 9 10 10 10 10 10 10 11 11 12 12 12 13 13 13 13 14 14 14 14 14 14 14 14 14
10 10 10 10 10 10 10 9 9 9 9 9 9 9 9 10 10 10 10 10 10 11 11 11 12 12 13 13 13 13 14 14 14 14 14 14 14 14
11 10 10 10 10 10 9 9 9 9 9 9 9 9 9 9 9 9 9 9 10 10 10 10 11 12 12 13 13 13 13 14 14 14 14 14 14 14
11 10 10 10 10 9 9 9 9 9 9 9 9 9 9 9 9 9 9 9 9 10 10 10 11 12 12 13 13 13 13 13 13 14 14 14 14 14
11 11 10 10 10 9 9 9 9 9 9 9 9 9 9 9 9 8 8 8 8 9 10 10 10 11 11 12 13 13 13 13 13 13 13 13 13 13
11 11 11 10 10 9 9 9 9 9 9 8 8 8 8 9 9 8 8 8 8 8 9 9 9 10 10 10 11 12 12 12 13 13 13 13 13 13
11 11 10 10 10 9 9 9 9 8 8 8 8 8 8 9 9 8 8 8 8 8 9 9 9 9 9 9 10 11 11 12 12 12 12 12 12 13
11 10 10 10 9 9 9 9 8 8 8 8 8 8 8 8 8 8 8 8 8 8 8 8 8 9 9 9 9 10 10 11 11 11 12 12 12 12
11 10 10 9 9 9 9 9 9 8 8 8 8 8 8 8 8 8 8 8 7 8 8 8 8 8 9 9 9 10 10 10 11 11 11 11 12 12
10 10 9 9 9 9 9 9 9 8 8 8 8 8 8 8 8 8 7 7 7 8 8 8 8 8 9 9 9 9 10 10 10 11 11 11 11 11
10 9 9 9 9 9 9 9 9 8 8 8 8 8 8 8 8 8 8 7 7 7 8 8 8 8 8 9 9 9 10 10 10 10 10 11 11 11
10 10 9 9 9 9 9 8 8 8 8 8 8 8 8 8 8 8 8 8 7 8 8 8 8 8 8 8 9 9 10 10 10 10 10 11 11 11
10 10 9 9 9 9 9 8 8 8 8 8 8 8 8 8 8 8 8 8 8 8 8 8 8 8 8 8 9 9 10 10 10 10 10 10 11 11
10 10 9 9 9 9 9 8 8 8 8 8 8 8 8 8 8 8 8 8 8 7 7 8 8 8 8 8 8 9 9 10 10 10 10 10 10 10
9 9 9 9 9 8 8 8 8 8 8 8 8 8 8 8 8 8 8 8 8 7 8 8 8 8 8 8 8 9 9 9 9 9 9 10 10 10
9 9 9 8 8 8 8 8 8 8 8 8 8 8 8 8 8 8 8 8 8 7 7 7 7 7 7 8 8 8 9 9 9 9 9 9 10 10
Wind_Speed
4 4 3 3 3 2 2 3 2 2 4 4 4 4 7 8 9 8 8 10 12 14 16 17 19 19 21 23 25 29 31 32 33 34 34 34 33 33
4 5 4 4 4 3 3 2 3 4 4 3 4 4 5 7 10 9 10 12 13 14 15 17 17 18 19 20 21 24 27 30 31 32 33 33 34 34
6 6 6 5 4 4 3 3 3 3 4 5 3 4 4 6 7 9 11 11 12 14 15 16 16 17 18 19 20 21 24 27 29 30 32 33 33 34
8 7 7 6 5 5 4 4 4 4 5 6 4 3 4 5 6 6 7 10 10 13 15 16 17 17 18 18 20 21 23 24 26 28 29 31 32 34
8 8 8 7 7 5 5 5 5 5 4 5 5 3 4 4 5 5 6 5 8 11 14 16 18 18 18 18 19 21 22 23 25 26 27 29 30 32
7 8 8 8 8 8 6 7 6 6 5 5 5 4 4 4 3 3 5 4 5 6 8 11 13 15 16 18 19 20 21 22 23 24 25 27 29 31
7 7 8 10 11 9 7 7 7 6 5 5 5 4 4 3 3 2 3 4 4 3 3 4 4 5 8 13 17 18 20 21 22 23 24 25 27 29
7 7 8 9 11 13 13 12 10 9 8 6 6 6 7 5 4 3 3 3 4 3 3 5 3 5 5 9 14 17 19 21 22 22 23 24 25 27
8 7 8 8 9 7 9 10 10 13 13 9 9 9 8 7 5 5 5 5 5 4 2 5 4 5 5 11 15 17 18 20 21 21 22 23 24 25
9 9 9 9 9 9 8 8 8 9 10 9 9 10 10 9 8 7 6 5 5 4 3 4 4 5 5 6 13 17 19 19 20 20 21 22 22 23
9 9 10 10 13 14 10 9 9 9 11 14 14 13 15 14 9 4 4 4 5 5 3 4 4 4 4 5 7 13 16 16 17 17 18 18 19 19
8 9 13 13 14 14 9 9 10 10 8 7 8 9 9 10 12 9 8 7 6 5 5 5 4 3 4 3 3 4 8 11 13 14 15 16 16 12
8 8 9 14 15 15 12 9 13 11 7 7 7 7 6 6 7 7 8 9 8 8 6 4 3 3 3 3 3 3 4 4 5 7 12 14 16 13
10 9 9 14 14 13 9 11 14 10 5 5 6 7 8 8 8 8 8 9 11 11 9 8 6 5 4 4 4 3 3 4 4 5 5 9 12 15
10 13 13 14 12 10 12 14 11 6 6 7 9 10 9 9 7 6 6 7 8 12 14 10 9 7 6 6 5 4 3 4 5 5 5 6 6 6
10 11 13 13 11 11 10 9 8 8 8 9 8 9 7 6 7 6 6 6 6 7 8 12 10 11 8 8 7 6 5 4 4 6 6 5 5 7
6 4 4 5 6 6 7 8 7 7 9 9 9 9 8 8 8 7 6 6 6 6 6 5 6 8 10 8 7 8 7 6 5 6 6 6 7 7
7 5 6 7 9 9 9 9 8 9 9 9 9 10 9 9 9 7 7 7 8 8 7 6 4 3 3 6 10 9 8 7 6 7 6 7 7 7
7 7 8 9 9 9 9 9 10 9 9 9 10 10 10 9 9 8 8 8 8 8 8 7 6 6 7 7 6 11 9 7 7 7 8 6 7 7
8 10 10 10 10 10 10 10 10 8 8 9 10 10 10 9 9 10 9 10 9 8 7 7 7 8 9 8 6 6 12 9 8 9 7 4 2 4
10 11 11 10 10 10 9 9 9 9 9 8 9 10 9 9 10 10 10 12 11 8 9 9 10 12 7 5 5 4 5 10 9 7 8 6 5 5
9 10 10 10 9 9 9 9 8 9 9 9 9 9 9 9 11 11 10 10 10 10 10 8 7 6 6 8 8 7 6 5 4 5 5 4 5 8
9 8 8 8 8 7 8 9 9 8 8 8 8 8 8 8 9 9 10 10 9 10 9 7 6 6 8 8 8 7 8 8 6 4 1 6 1 0
Wind_Direction
255 254 248 252 245 232 210 185 192 282 295 293 309 319 328 321 307 286 270 265 257 248 243 241 242 243 241 235 231 227 224 222 220 218 218 218 219 220
244 249 254 252 255 248 232 210 184 196 252 275 276 289 311 317 316 296 282 277 267 257 250 245 242 242 243 239 234 230 227 224 221 220 218 218 218 219
251 246 252 252 251 254 248 241 225 199 245 273 267 287 302 306 310 302 289 275 271 267 257 250 244 240 239 239 236 233 230 225 223 222 221 220 219 219
243 243 250 253 248 247 244 246 247 232 230 269 283 293 292 293 293 296 289 282 269 270 262 254 246 238 236 236 235 233 231 228 226 225 224 222 222 221
232 232 240 240 247 246 243 244 246 255 233 244 268 272 282 292 305 302 297 290 283 275 264 256 249 242 239 237 235 233 231 230 230 229 228 226 224 223
231 229 232 228 235 241 244 241 240 249 248 248 260 270 275 289 302 307 316 313 298 289 270 259 254 249 244 240 237 235 232 230 230 230 229 228 227 224
235 235 236 237 237 235 238 234 233 236 239 243 256 268 272 284 280 284 296 306 301 297 308 289 267 255 249 245 241 238 235 232 230 229 230 230 228 226
233 241 249 255 256 253 252 246 230 226 228 232 242 245 254 250 252 259 275 313 305 305 332 297 271 263 251 242 241 238 235 232 231 231 231 231 231 230
228 237 252 254 253 251 261 266 259 245 229 221 230 239 244 239 235 252 248 242 248 268 307 287 281 269 258 249 242 238 238 236 233 233 233 232 232 231
228 229 236 250 255 247 250 257 255 253 242 231 228 236 238 236 225 233 241 250 259 263 234 262 276 269 268 255 244 234 233 234 233 233 233 233 232 231
236 234 233 244 251 250 247 251 257 259 255 241 232 235 240 242 231 228 239 245 267 269 227 231 261 269 267 260 250 237 228 229 230 233 234 233 232 229
242 240 238 242 250 251 240 238 249 255 251 253 246 249 248 250 243 222 221 229 241 260 239 214 243 245 272 268 253 235 226 226 227 230 233 233 226 219
240 242 240 239 245 250 242 230 240 244 240 237 244 250 253 249 244 226 219 221 227 236 234 208 236 237 248 282 281 238 219 213 215 225 227 227 220 212
234 238 235 236 240 246 243 234 242 244 235 236 243 249 251 252 249 239 229 228 231 235 232 210 223 228 236 254 265 262 231 215 207 214 211 216 221 222
234 233 230 233 237 244 244 244 243 234 226 236 245 250 246 246 245 246 247 240 239 243 243 221 218 225 221 231 243 238 240 233 212 211 208 207 206 203
235 239 238 241 240 242 248 250 237 227 226 237 244 249 246 239 240 237 243 243 247 257 245 229 218 218 228 230 229 231 217 222 213 208 207 210 204 203
199 212 221 228 233 239 245 246 238 229 232 238 242 247 246 242 243 231 228 229 232 247 256 247 227 221 219 213 223 228 222 222 217 202 205 215 213 206
172 210 225 231 239 244 247 249 241 236 235 234 236 239 241 241 243 232 220 223 234 239 240 239 228 228 240 243 220 222 218 219 213 205 204 214 215 203
191 223 232 237 240 241 242 244 247 242 235 232 235 236 236 237 235 234 227 227 234 237 236 227 213 209 226 242 238 210 207 206 200 208 210 209 212 199
219 228 234 237 238 239 241 243 246 245 238 236 236 236 234 232 233 234 230 228 232 232 234 226 216 214 219 226 225 218 202 198 200 209 205 193 171 150
224 229 234 237 237 238 239 241 242 244 242 236 235 234 231 228 231 233 231 229 227 228 231 233 230 220 219 204 213 220 207 199 194 195 188 183 181 179
230 230 233 236 236 237 239 240 242 245 245 241 238 235 230 225 228 229 228 226 226 226 231 235 226 207 201 210 219 212 196 177 162 141 144 157 183 191
232 233 235 236 238 239 240 241 242 247 247 243 240 237 232 228 227 227 227 226 225 226 226 227 219 208 211 210 211 204 192 183 175 162 106 13 350 182
Height
1533 1532 1532 1532 1532 1532 1531 1531 1531 1528 1526 1527 1527 1528 1528 1527 1527 1526 1526 1526 1526 1526 1527 1527 1528 1530 1531 1534 1537 1540 1544 1548 1552 1556 1560 1564 1568 1571
1530 1529 1528 1528 1528 1528 1528 1527 1527 1526 1523 1523 1523 1524 1524 1524 1523 1523 1522 1522 1522 1522 1522 1522 1522 1523 1525 1527 1529 1533 1536 1540 1544 1548 1552 1556 1560 1563
1526 1525 1525 1524 1523 1523 1523 1523 1523 1522 1520 1518 1519 1519 1519 1519 1519 1519 1518 1518 1518 1517 1517 1517 1517 1517 1518 1520 1523 1525 1528 1531 1535 1539 1544 1548 1551 1555
1522 1521 1520 1520 1519 1518 1518 1517 1517 1517 1516 1513 1513 1514 1514 1514 1513 1513 1513 1513 1512 1512 1512 1512 1512 1512 1513 1514 1516 1519 1521 1524 1527 1531 1535 1539 1543 1546
1517 1516 1515 1515 1514 1513 1513 1512 1512 1512 1511 1509 1508 1508 1508 1508 1508 1507 1507 1507 1507 1507 1506 1506 1506 1507 1507 1508 1510 1512 1515 1517 1520 1523 1526 1530 1533 1537
1512 1511 1510 1510 1509 1508 1507 1506 1506 1506 1506 1505 1504 1503 1503 1503 1503 1502 1501 1501 1501 1501 1501 1501 1501 1501 1501 1502 1504 1505 1508 1510 1513 1515 1518 1521 1524 1527
1506 1506 1505 1504 1503 1502 1501 1500 1500 1500 1500 1499 1499 1498 1498 1498 1498 1497 1496 1496 1496 1496 1495 1495 1495 1495 1495 1496 1497 1499 1501 1503 1505 1508 1510 1512 1515 1518
1500 1499 1499 1498 1497 1496 1495 1495 1494 1494 1493 1494 1493 1493 1493 1493 1493 1493 1492 1491 1491 1492 1491 1490 1490 1490 1490 1490 1491 1492 1494 1496 1499 1501 1503 1505 1507 1509
1494 1493 1492 1491 1490 1489 1489 1489 1488 1488 1488 1488 1487 1487 1487 1488 1488 1487 1487 1486 1485 1486 1486 1484 1485 1484 1485 1485 1485 1486 1488 1490 1492 1494 1496 1497 1499 1501
1488 1487 1486 1485 1484 1483 1482 1482 1482 1482 1482 1482 1481 1481 1482 1482 1482 1482 1481 1480 1479 1481 1481 1479 1479 1479 1479 1479 1480 1480 1481 1483 1485 1487 1488 1490 1492 1494
1481 1480 1479 1479 1478 1478 1477 1476 1475 1475 1476 1476 1475 1475 1475 1475 1476 1475 1475 1474 1472 1473 1475 1474 1473 1473 1473 1473 1474 1474 1475 1476 1478 1480 1482 1483 1485 1487
1475 1474 1473 1472 1472 1471 1471 1470 1469 1469 1469 1469 1469 1468 1468 1468 1469 1469 1468 1468 1467 1466 1468 1469 1468 1469 1467 1467 1467 1468 1469 1470 1472 1473 1475 1477 1479 1480
1468 1467 1467 1466 1465 1465 1464 1464 1463 1463 1462 1462 1461 1461 1461 1461 1461 1461 1461 1461 1460 1460 1462 1464 1463 1464 1464 1462 1462 1463 1463 1464 1466 1467 1469 1471 1473 1474
1461 1460 1460 1459 1459 1458 1457 1457 1457 1456 1455 1454 1454 1453 1453 1453 1453 1453 1453 1453 1453 1453 1455 1457 1457 1458 1458 1458 1457 1458 1459 1459 1461 1462 1464 1465 1467 1469
1453 1453 1452 1452 1451 1450 1450 1450 1449 1448 1447 1446 1445 1444 1445 1445 1445 1444 1444 1445 1445 1445 1447 1449 1450 1451 1452 1452 1452 1453 1453 1454 1455 1457 1458 1460 1462 1463
1445 1445 1444 1444 1443 1442 1442 1441 1441 1440 1439 1438 1437 1437 1437 1436 1436 1436 1436 1437 1437 1438 1440 1441 1443 1444 1445 1446 1447 1447 1449 1449 1450 1452 1453 1455 1457 1458
1437 1436 1436 1435 1434 1434 1433 1432 1432 1431 1430 1430 1429 1429 1428 1428 1428 1429 1429 1430 1430 1430 1432 1434 1436 1437 1438 1439 1440 1441 1443 1444 1445 1447 1449 1450 1451 1453
1428 1427 1427 1426 1425 1425 1424 1423 1423 1422 1421 1421 1421 1421 1421 1421 1421 1421 1422 1423 1423 1423 1425 1427 1429 1430 1431 1431 1433 1434 1436 1438 1440 1442 1443 1445 1446 1449
1419 1418 1418 1417 1417 1416 1415 1414 1413 1413 1413 1413 1412 1412 1413 1413 1413 1413 1414 1415 1415 1416 1417 1419 1421 1423 1423 1423 1425 1428 1430 1432 1434 1436 1438 1440 1441 1444
1409 1409 1409 1408 1408 1408 1407 1406 1405 1405 1405 1404 1404 1404 1405 1405 1405 1405 1406 1407 1408 1409 1410 1411 1413 1415 1416 1418 1420 1422 1424 1426 1428 1430 1432 1434 1437 1441
1400 1400 1400 1400 1399 1399 1398 1398 1397 1397 1396 1396 1396 1396 1396 1397 1397 1397 1398 1399 1400 1401 1402 1403 1405 1408 1410 1412 1413 1414 1417 1420 1422 1424 1427 1430 1432 1435
1392 1392 1392 1392 1391 1391 1390 1390 1389 1389 1388 1388 1387 1388 1388 1388 1389 1389 1390 1391 1391 1392 1394 1396 1398 1401 1402 1403 1405 1408 1411 1414 1416 1419 1422 1424 1426 1429
1384 1384 1384 1384 1383 1383 1382 1382 1381 1380 1380 1380 1379 1379 1380 1380 1380 1381 1382 1383 1383 1384 1386 1388 1390 1392 1394 1396 1399 1402 1405 1408 1411 1414 1416 1419 1422 1425